Погода в Арке

Погода в Арке : погода сейчас, прогноз погоды и архив. Всё, что Вы хотите узнать о погоде в Арке!

Хотите узнать прогноз погоды в Арке? Тогда Вам сюда: Погода в Арке

Поиск расширенной информации на нашем сайте:

Другие новости

Новости СМИ2

Главная страница сайта

Новости сайта

02.10.2013

Напоминаем, что на нашем новом сайте вы можете получить высокодетализированные прогнозы погоды по пунктам России, СНГ и мира (включающие важные для авиации метеовеличины, такие как направление и скорость ветра, видимость, явления погоды, количество и форма облачности, нижняя и верхняя граница облачности), а также ознакомиться с разнообразными материалами по авиационной метеорологии и подборкой полезных ссылок на эту тему.

Сайт Метеоцентр.Азия посвящён разработке технологий оптимизации авиаметеорологического обслуживания, включая проектирование и перспективное создание нескольких автоматизированных авиаметеорологических систем:
- система выпуска высокодетальных прогностических карт явлений погоды для нижнего воздушного пространства по России и ближнему зарубежью;
- система верификации прогнозов TAF (выпускаемых синоптиками официальных АМСГ РФ и ближнего зарубежья) и AUTOTAF (выпускаемых сайтом Метеоцентр.Азия) - выявление ошибок, онлайн-сопоставление с фактической погодой METAR, автоматическое внесение коррективов в прогнозы при резком отклонении фактической погоды от прогноза, подсчёт оправдываемости прогнозов по элементам и в целом;
- система обработки, анализа и отображения авиаметеорологической информации для применения провайдерами метеорологической информации.

Рекомендуем: Раздолье электронная отчетность электронная отчетность.

Погода в Арке - сегодня

Время (UTC), дата Ветер
(°,м/с) 
Видим.   Явления Облачность Т
(°С)
Тd
(°С)
f(%) Тe
(°С)
Pmin
(гПа)
dP
(гПа)
Po
(мм)
O2
(г/м3)
Тmin Tmax R s Состояние
почвы
12 22.04.17 150 (ЮВ) 20000 м    9/9 1000 м 
[Sc]
+3.2 -2.3 67 +2  1019.6  746  297           
15 22.04.17 тихо ()   20000 м    10/10 1000 м 
[Sc]
+1.2 -2 79 +1  1019.5  -0.3  746  299           
18 22.04.17 320 (СЗ) 20000 м    10/10 1000 м 
[Sc]
+0.6 -2 83 +1  1020.1  0.6  746  300           
21 22.04.17 270 (З) 20000 м    10/0 средняя, верхняя 
[Ac trans|Cs]
+2.5 -2.1 72 +2  1020.1  0.2  747  298  -0.4      28  равномерный
мокрый или
старый снег
100% 
00 23.04.17 150 (ЮВ) 20000 м    9/8 1000 м верхняя 
[Sc|Ci fib]
+6.2 -2.8 52 +6  1020.3  0.5  747  295           
03 23.04.17 140 (ЮВ) 20000 м    9/5 1000 м средняя, верхняя 
[Sc|Ac trans|Ci fib]
+8.8 -2.8 44 +9  1019.8  -0.3  747  292           
06 23.04.17 160 (Ю) 20000 м    8/3 1000 м средняя, верхняя 
[Sc|Ac trans|Ci]
+8.7 -2.8 44 +8  1020.2  0.4  747  292           
09 23.04.17 160 (Ю) 20000 м    8/0 верхняя 
[Ci fib]
+6.9 -2.3 52 +7  1021.5  1.1  748  294    +9.5       
12 23.04.17 тихо ()   20000 м    3/0 средняя, верхняя 
[Ac trans|Ci fib]
-0.6 -2.7 86 -1  1023.5  1.1  749  303           
15 23.04.17 тихо ()   20000 м    ясно 
-4 -4.7 95 -4  1024.7  0.8  749  307           
18 23.04.17 тихо ()   20000 м    1/0 верхняя 
[Ci fib]
-6.2 -6.8 96 -6  1025.6  0.7  750  310           
21 23.04.17 300 (СЗ) 20000 м    ясно 
-1.7 -4.4 82 -1  1025.5  0.3  750  305  -6.7         
00 24.04.17 260 (З) 20000 м    ясно 
+6.4 -4.3 46 +7  1024  -0.7  750  296           
03 24.04.17 150 (ЮВ) 20000 м    ясно 
+10.4 -7.5 28 +12  1022.6  -1.1  749  291           
06 24.04.17 180 (Ю) 20000 м    ясно 
+11 -15.6 14 +11  1021.4  -1.1  748  291           
09 24.04.17 160 (Ю) 20000 м    ясно 
+9 -11.7 22 +9  1020.7  -0.8  747  293    +11.1       
12 24.04.17 тихо ()   20000 м    ясно 
-1.9 -6.5 71 -2  1021.8  0.1  748  304           
15 24.04.17 тихо ()   н/о    н/о 
-5.4 -7.4 86 -5  1021.9  -0.2  747  308           
18 24.04.17 тихо ()   20000 м    ясно 
-7.6 -8.7 92 -8  1021.5  -0.6  747  310           
21 24.04.17 310 (СЗ) 20000 м    3/0 верхняя 
[Ci fib]
-0.7 -6.9 63 1020  -0.9  746  302  -8.4      21  мокрый или
старый снег
50-90% 
00 25.04.17 340 (С) 20000 м    1/0 верхняя 
[Ci fib]
+6.1 -8.1 35 +7  1017.9  -1.5  745  294           
03 25.04.17 290 (З) 20000 м    ясно 
+11.5 -8.6 24 +13  1015.2  -2.1  744  288           
06 25.04.17 180 (Ю) 20000 м    1/0 верхняя 
[Ci fib]
+12.4 -8.8 22 +13  1013.3  -1.8  742  287           
09 25.04.17 130 (ЮВ) 20000 м    1/0 верхняя 
[Ci fib]
+10.8 -7.8 26 +12  1012.4  -1  741  288    +12.9       
12 25.04.17 150 (ЮВ) 20000 м    1/0 верхняя 
[Ci fib]
+3.8 -3.2 60 +3  1012.7  -0.3  741  295           
Время (UTC), дата Ветер
(°,м/с) 
Видим.   Явления Облачность Т
(°С)
Тd
(°С)
f(%) Тe
(°С)
Pmin
(гПа)
dP
(гПа)
Po
(мм)
O2
(г/м3)
Тmin Tmax R s Состояние
почвы

Для получения пояснительной информации подведите курсор к названию столбца.

ПОГОДА в Арке - архив

Всё, что Вы хотите узнать о погоде в Арке - удобно и подробно!

Выберите нужную дату (начиная с 1 января 2015* года) и нажмите кнопку "Найти".
Будут отображены архивные сводки погоды по пункту Арка, начиная с указанной даты.


Отображать данные в формате CSV (для использования в таблицах Excel)


Внимание! Наш архив погоды предназначен исключительно для личного некоммерческого использования в познавательных целях. Если Вам необходимы официальные справки о состоянии погоды (для производственных, юридических, коммерческих и т.п. целей), обращайтесь в органы Росгидромета.

*Примечание: данная дата относится к архиву по метеостанциям СССР (Россия, СНГ, Балтия).
Архив по метеостанциям Зарубежной Европы и Азии (кроме Китая) хранится 10 дней, по другим регионам земного шара (Китай, Африка, Америка, Австралия, Океания) - 1 день.

Арка - район местоположения метеостанции


Название, широта, долгота, высота метеостанции:
Арка 60.1°ш. 142.3°д. 198 м над ур. моря [Российская Федерация]

Дополнительная информация

В oтличие oт бoльшинства пoгoдных сайтoв мы публикуем пoдрoбную метеoинфoрмацию в детальнoм прoфессиoнальнoм фoрмате.

Характеристики температуры и влажнoсти вoздуха измеряются на высoте 2 м в тени вдали oт зданий и деревьев.
Скoрoсть ветра измеряется на высoте 10 м (на урoвне рoста челoвека скoрoсть ветра ниже в 1.5-2 раза). Если метеoстанция нахoдится в гoрoде или в лесу, тo скoрoсть ветра занижена на 2-4 м/с пo сравнению с oткрытым местoм. Скoрoсть ветра над акватoриями крупных рек и oзёр, а также на вершинах хoлмoв на 2-5 м/с выше, чем в oбычных услoвиях.
Атмoсфернoе давление в разных тoчках местнoсти мoжет значительнo oтличаться oт давления на метеoстанции, в зависимoсти oт услoвий рельефа (при пoдъёме на 10 м давление пoнижается примернo на 1 мм рт.ст.).